User: anonymous   Login
Location: Montr�al
(45.5000°N, 73.5830°W)
Time: 19:25:58
(UTC-04:00)
Language:

Cosmos 2369 - Orbit

View from above orbital plane
View from above orbital plane
View from above satellite
View from above satellite

Ground track
Ground track

The orbit data is extracted from the following two-line orbital elements,

1 26069U 00006A   18142.09109666 +.00000266 +00000-0 +16696-3 0  9997
2 26069 070.9951 009.0982 0009812 076.1230 284.0982 14.13370027207351
Epoch (UTC): 22 May 2018 02:11:10
Eccentricity: 0.0009812
inclination: 70.9951°
perigee height: 841 km
apogee height: 855 km
right ascension of ascending node: 9.0982°
argument of perigee: 76.1230°
revolutions per day: 14.13370027
mean anomaly at epoch: 284.0982°
orbit number at epoch: 20735

The dashed part of the orbit path shows where the satellite is in the earth's shadow,  

DLR